Location: Cucq
(50.4773°N, 1.6202°E)
Time: 20:53:54
(UTC+00:00)

Cosmos 1953 - Pass Details

Date: 07 August 2020
Orbit: 538 x 558 km, 82.5° (Epoch: 21 September)

Event Time Altitude Azimuth Distance (km) Brightness Sun altitude
Exits shadow 03:35:59 - 197° (SSW) 2,167 4.9 -8.1°
Reaches altitude 10° 03:36:50 10° 199° (SSW) 1,822 4.5 -8.0°
Maximum altitude 03:40:49 66° 282° (WNW) 607 2.4 -7.5°
Drops below altitude 10° 03:44:52 10° 5° (N) 1,849 5.7 -7.0°
Sets 03:47:04 0° 9° (N) 2,752 6.6 -6.7°
